Weather History for Flagstaff, AZ

Change the Weather History Date:

Saturday, August 3, 2013

  Actual Average Record
Temperature  
Mean Temperature 66 °F 66 °F  
Max Temperature 79 °F 80 °F 91 °F (1994)
Min Temperature 53 °F 52 °F 37 °F (1956)
Degree Days  
Heating Degree Days 0 1  
Month to date heating degree days 0 3  
Since 1 July heating degree days 9 35  
Cooling Degree Days 1 2  
Month to date cooling degree days 2 6  
Year to date cooling degree days 127 87  
Growing Degree Days 16 (Base 50)    
Moisture  
Dew Point 52 °F    
Average Humidity 64    
Maximum Humidity 93    
Minimum Humidity 35    
Precipitation  
Precipitation T in 0.11 in 1.64 in (1907)
Month to date precipitation T 0.33  
Year to date precipitation 12.84 11.41  
Snow  
Snow 0.00 in 0.00 in 0.00 in (2013)
Month to date snowfall 0.0 0.0  
Since 1 July snowfall 0.0 0.0  
Snow Depth 0.00 in    
Sea Level Pressure  
Sea Level Pressure 30.06 in    
Wind  
Wind Speed 4 mph (SW)    
Max Wind Speed 16 mph    
Max Gust Speed 21 mph    
Visibility 10 miles    
Events      
T = Trace of Precipitation, MM = Missing Value Source: NWS Daily Summary

Daily Weather History Graph

Daily Weather History Graph

Search for Another Location

Airport:

Trip Planner

Search our weather history database for the weather conditions in past years. The results will help you decide how hot, cold, wet, or windy it might be!

Date:

Astronomy

Aug. 03, 2013 Rise Set
Actual Time 5:37 AM MST 7:27 PM MST
Civil Twilight 5:09 AM MST 7:55 PM MST
Nautical Twilight 4:36 AM MST 8:28 PM MST
Astronomical Twilight 4:00 AM MST 9:04 PM MST
Moon 2:51 AM MST (8/3) 5:11 PM MST (8/3)
Length of Visible Light 14h 45m
Length of Day
13h 50m
Waning Crescent, 9% of the Moon is Illuminated
Aug 3
Waning Crescent
Aug 6
New
Aug 14
First Quarter
Aug 20
Full
Aug 28
Last Quarter

Hourly Weather History & Observations

Time (MST) Temp. Dew Point Humidity Pressure Visibility Wind Dir Wind Speed Gust Speed Precip Events Conditions
12:57 AM 55.0 °F 51.1 °F 86% 30.01 in 10.0 mi Calm Calm - N/A   Clear
1:57 AM 54.0 °F 50.0 °F 86% 30.04 in 10.0 mi Calm Calm - N/A   Clear
2:57 AM 53.1 °F 50.0 °F 89% 30.06 in 10.0 mi Calm Calm - N/A   Clear
3:57 AM 53.1 °F 50.0 °F 89% 30.31 in 10.0 mi Calm Calm - N/A   Clear
4:57 AM 54.0 °F 52.0 °F 93% 30.02 in 10.0 mi SW 3.5 mph - N/A   Clear
5:57 AM 54.0 °F 52.0 °F 93% 30.09 in 10.0 mi Calm Calm - N/A   Clear
6:57 AM 60.1 °F 55.0 °F 83% 30.09 in 10.0 mi Calm Calm - N/A   Clear
7:57 AM 66.0 °F 55.9 °F 70% 30.08 in 10.0 mi SW 4.6 mph - N/A   Clear
8:57 AM 70.0 °F 53.1 °F 55% 30.07 in 10.0 mi SW 3.5 mph - N/A   Clear
9:57 AM 73.0 °F 53.1 °F 49% 30.06 in 10.0 mi South 6.9 mph - N/A   Clear
10:57 AM 73.9 °F 51.1 °F 45% 30.07 in 10.0 mi West 10.4 mph - N/A   Mostly Cloudy
11:57 AM 73.9 °F 51.1 °F 45% 30.06 in 10.0 mi WSW 9.2 mph - N/A   Mostly Cloudy
12:57 PM 77.0 °F 48.9 °F 37% 30.04 in 10.0 mi WSW 8.1 mph 16.1 mph N/A   Scattered Clouds
1:57 PM 75.9 °F 48.9 °F 38% 30.05 in 10.0 mi SSW 10.4 mph - N/A   Scattered Clouds
2:57 PM 78.1 °F 48.9 °F 36% 30.02 in 10.0 mi SW 10.4 mph - N/A   Mostly Cloudy
3:57 PM 73.0 °F 50.0 °F 44% 30.04 in 10.0 mi East 10.4 mph 16.1 mph N/A   Mostly Cloudy
4:57 PM 75.9 °F 52.0 °F 43% 30.03 in 10.0 mi Variable 6.9 mph - N/A   Partly Cloudy
5:57 PM 73.0 °F 52.0 °F 48% 30.03 in 10.0 mi North 4.6 mph - N/A   Partly Cloudy
6:57 PM 72.0 °F 52.0 °F 49% 30.02 in 10.0 mi Calm Calm - N/A   Mostly Cloudy
7:57 PM 63.0 °F 57.9 °F 84% 30.04 in 10.0 mi Calm Calm - 0.00 in   Mostly Cloudy
8:57 PM 61.0 °F 55.9 °F 83% 30.04 in 10.0 mi Calm Calm - N/A   Clear
9:57 PM 60.1 °F 55.0 °F 83% 30.05 in 10.0 mi Calm Calm - N/A   Clear
10:57 PM 57.9 °F 55.0 °F 90% 30.05 in 10.0 mi Calm Calm - N/A   Clear
11:57 PM 55.9 °F 53.1 °F 90% 30.05 in 10.0 mi Calm Calm - N/A   Clear